Location: Beadle
(51.4667°N, 109.0000°W)
Time: 18:16:07
(UTC+00:00)

O/OREOS (USA 219) - Pass Details

Date: 27 June 2022
Orbit: 621 x 646 km, 72.0° (Epoch: 22 May)

Event Time Altitude Azimuth Distance (km) Brightness Sun altitude
Rises 07:22:43 0° 335° (NNW) 2,961 ? -15.2°
Reaches altitude 10° 07:25:08 10° 343° (NNW) 2,051 ? -15.2°
Maximum altitude 07:29:26 38° 52° (NE) 991 ? -15.2°
Drops below altitude 10° 07:33:45 10° 121° (ESE) 2,045 ? -15.1°
Enters shadow 07:34:39 - 125° (SE) 2,379 ? -15.1°
